Location: Buchloe
(48.0161°N, 10.7316°E)
Time: 10:11:09
(UTC+01:00)

ISS - Visible Passes

Search period start: 09 December 2023 00:00
Search period end: 19 December 2023 00:00
Orbit: 415 x 417 km, 51.6° (Epoch: 09 December)

Date Brightness Start Highest point End Pass type
(mag) Time Alt. Az. Time Alt. Az. Time Alt. Az.
15 Dec -0.5 06:57:24 10° S 06:59:18 14° SE 07:01:13 10° E visible
17 Dec -1.8 06:54:39 10° SSW 06:57:39 31° SE 07:00:39 10° E visible
18 Dec -1.2 06:06:10 10° S 06:08:42 20° SE 06:11:16 10° E visible
